Flag for United Kingdom Weather past 2 weeks in Peterborough, England, United Kingdom

Now
57 °F

Broken clouds.


Feels Like: 53 °F
Forecast: 37 / 50 °F
Wind: 20 mph from West

Location: Wittering

Current Time: Apr 25, 2015 at 1:53:28 PM

Latest Report: Apr 25, 2015 at 12:50 PM


Visibility: N/A

Pressure: 29.62 "Hg

Humidity: 67%

Dew point: 46 °F

Location of PeterboroughLocation

Historic Weather in Peterborough — Graph

°F

Peterborough temperature yesterday

Maximum temperature yesterday: 63 °F (at 11:50 AM)
Minimum temperature yesterday: 39 °F (at 5:50 AM)
Average temperature yesterday: 53 °F

Past Weeks' High & Low Weather Summary

 TemperatureHumidityPressure
High68 °F (Apr 10, 2:50 PM)100% (Apr 13, 2:50 AM)30.60 "Hg (Apr 13, 2:50 AM)
Low34 °F (Apr 13, 3:50 AM)35% (Apr 11, 3:50 PM)29.62 "Hg (Apr 25, 4:50 AM)
Average50 °F74%30.18 "Hg
* Reported Apr 10 12:50 PM — Apr 25 12:50 PM, Peterborough, Weather by CustomWeather, © 2015

Note: Actual official high and low records may vary slightly from our data, if they occured in-between our weather recording intervals... More about our weather records

Advertising

Peterborough weather history for previous 24 hours

 ConditionsComfort  
Time TempWeatherWind HumidityBarometerVisibility
12:50 PM
Sat, Apr 25
57 °FBroken clouds.20 mph67%29.62 "HgN/A
11:50 AM57 °FBroken clouds.16 mph67%29.62 "HgN/A
10:50 AM57 °FBroken clouds.20 mph63%29.62 "HgN/A
9:50 AM57 °FBroken clouds.17 mph63%29.62 "HgN/A
8:50 AM55 °FBroken clouds.13 mph77%29.62 "HgN/A
7:50 AM54 °FPassing clouds.13 mph77%29.62 "HgN/A
6:50 AM52 °FScattered clouds.10 mph82%29.62 "HgN/A
5:50 AM52 °FOvercast.10 mph88%29.62 "HgN/A
4:50 AM52 °FPassing clouds.12 mph94%29.62 "HgN/A
3:50 AM52 °FPartly cloudy.10 mph94%29.65 "HgN/A
2:50 AM54 °FPartly cloudy.13 mph88%29.65 "HgN/A
1:50 AM54 °FPartly cloudy.14 mph88%29.65 "HgN/A
11:50 PM
Fri, Apr 24
55 °FPassing clouds.15 mph82%29.68 "HgN/A
10:50 PM55 °FPassing clouds.13 mph77%29.71 "HgN/A
9:50 PM55 °FPassing clouds.10 mph77%29.71 "HgN/A
8:50 PM55 °FPassing clouds.12 mph72%29.71 "HgN/A
7:50 PM57 °FScattered clouds.12 mph67%29.71 "HgN/A
6:50 PM59 °FPartly sunny.17 mph63%29.74 "HgN/A
5:50 PM59 °FPartly sunny.16 mph63%29.74 "HgN/A
4:50 PM59 °FScattered clouds.16 mph63%29.74 "HgN/A
3:50 PM61 °FPartly sunny.20 mph63%29.74 "HgN/A
2:50 PM63 °FPartly sunny.14 mph64%29.77 "HgN/A
1:50 PM63 °FPartly sunny.12 mph56%29.77 "HgN/A
Weather by CustomWeather, © 2015

See weather overviewHow to use our weather pages